Flag for Germany Weather past 2 weeks in Burgdorf, Lower Saxony, Germany

Now
68 °F

Scattered clouds.


Feels Like: 68 °F
Forecast: 58 / 79 °F
Wind: 8 mph from West

Location: Celle Airport

Current Time: Jul 31, 2014 at 12:01:06 PM

Latest Report: Jul 31, 2014 at 11:20 AM


Visibility: N/A

Pressure: 29.98 "Hg

Humidity: 64%

Dew point: 55 °F

Location of BurgdorfLocation

Historic Weather in Burgdorf — Graph

°F

Burgdorf temperature yesterday

Maximum temperature yesterday: 73 °F (at 5:20 PM)
Minimum temperature yesterday: 61 °F (at 11:20 PM)
Average temperature yesterday: 67 °F

Past Weeks' High & Low Weather Summary

 TemperatureHumidityPressure
High91 °F (Jul 19, 4:20 PM)100% (Jul 25, 8:20 PM)30.18 "Hg (Jul 25, 8:20 PM)
Low55 °F (Jul 17, 4:20 AM)26% (Jul 19, 4:20 PM)29.74 "Hg (Jul 29, 5:20 PM)
Average71 °F69%29.97 "Hg
* Reported Jul 16 10:20 AM — Jul 31 10:20 AM, Burgdorf, Weather by CustomWeather, © 2014

Note: Actual official high and low records may vary slightly from our data, if they occured in-between our weather recording intervals... More about our weather records

Advertising

Burgdorf weather history for previous 24 hours

 ConditionsComfort  
Time TempWeatherWind HumidityBarometerVisibility
10:20 AM
Jul 31
66 °FScattered clouds.8 mph68%29.98 "HgN/A
9:20 AM64 °FScattered clouds.8 mph73%29.98 "HgN/A
8:20 AM63 °FPassing clouds.5 mph83%29.98 "HgN/A
7:20 AM59 °FPassing clouds.3 mph88%29.98 "HgN/A
6:20 AM55 °FFog.2 mph94%29.98 "HgN/A
5:20 AM55 °FFog.1 mph94%29.95 "HgN/A
4:20 AM55 °FPassing clouds.3 mph94%29.95 "HgN/A
3:20 AM57 °FPassing clouds.2 mph88%29.95 "HgN/A
2:20 AM57 °FPassing clouds.1 mph94%29.92 "HgN/A
1:20 AM57 °FPassing clouds.1 mph94%29.92 "HgN/A
12:20 AM59 °FPassing clouds.1 mph88%29.92 "HgN/A
11:20 PM
Jul 30
61 °FPassing clouds.1 mph83%29.92 "HgN/A
10:20 PM63 °FPassing clouds.1 mph77%29.92 "HgN/A
9:20 PM66 °FScattered clouds.2 mph68%29.89 "HgN/A
8:20 PM72 °FScattered clouds.7 mph53%29.86 "HgN/A
7:20 PM73 °FScattered clouds.7 mph53%29.86 "HgN/A
6:20 PM73 °FScattered clouds.9 mph57%29.83 "HgN/A
5:20 PM73 °FScattered clouds.7 mph61%29.83 "HgN/A
4:20 PM70 °FBroken clouds.5 mph78%29.83 "HgN/A
3:20 PM72 °FBroken clouds.8 mph69%29.83 "HgN/A
2:20 PM72 °FBroken clouds.6 mph78%29.83 "HgN/A
1:20 PM68 °FLight rain. More clouds than sun.6 mph88%29.83 "HgN/A
12:48 PM66 °FLight rain. More clouds than sun.5 mph94%29.83 "Hg5 mi
12:20 PM64 °FLight rain. More clouds than sun.3 mph94%29.83 "Hg4 mi
Weather by CustomWeather, © 2014

See weather overviewHow to use our weather pages